Weather History for International Falls, MN

Change the Weather History Date:

Wednesday, October 19, 2011

  Actual Average Record
Temperature  
Mean Temperature 38 °F 40 °F  
Max Temperature 42 °F 50 °F 77 °F (1953)
Min Temperature 33 °F 30 °F 12 °F (1972)
Degree Days  
Heating Degree Days 27 25  
Month to date heating degree days 234 408  
Since 1 July heating degree days 706 942  
Cooling Degree Days 0 0  
Month to date cooling degree days 7 0  
Year to date cooling degree days 207 192  
Moisture  
Dew Point 31 °F    
Average Humidity 78    
Maximum Humidity 89    
Minimum Humidity 67    
Precipitation  
Precipitation 0.04 in 0.07 in 2.00 in (1909)
Month to date precipitation 0.82 1.38  
Year to date precipitation 18.05 21.33  
Snow  
Snow T in 0.10 in 1.20 in (1992)
Month to date snowfall T 0.8  
Since 1 July snowfall T 0.9  
Since 1 September snowfall T 0.9  
Snow Depth 0.00 in    
Sea Level Pressure  
Sea Level Pressure 30.20 in    
Wind  
Wind Speed 5 mph (NNE)    
Max Wind Speed 12 mph    
Max Gust Speed 14 mph    
Visibility 8 miles    
Events Snow    
T = Trace of Precipitation, MM = Missing Value Source: NWS Daily Summary

Daily Weather History Graph

Daily Weather History Graph

Search for Another Location

Airport:

Trip Planner

Search our weather history database for the weather conditions in past years. The results will help you decide how hot, cold, wet, or windy it might be!

Date:

Astronomy

Oct. 19, 2011 Rise Set
Actual Time 7:39 AM CDT 6:17 PM CDT
Civil Twilight 7:07 AM CDT 6:48 PM CDT
Nautical Twilight 6:30 AM CDT 7:25 PM CDT
Astronomical Twilight 5:54 AM CDT 8:01 PM CDT
Moon 11:51 PM CDT 2:23 PM CDT
Length of Visible Light 11h 41m
Length of Day
10h 37m
Waning Gibbous, 54% of the Moon is Illuminated
Oct 19
Waning Gibbous
Oct 19
Last Quarter
Oct 26
New
Nov 2
First Quarter
Nov 10
Full

Hourly Weather History & Observations

Time (CDT) Temp. Windchill Dew Point Humidity Pressure Visibility Wind Dir Wind Speed Gust Speed Precip Events Conditions
12:55 AM 35.1 °F 27.9 °F 30.0 °F 82% 30.16 in 10.0 mi NNW 9.2 mph - N/A   Overcast
1:55 AM 35.1 °F 28.6 °F 30.0 °F 82% 30.16 in 10.0 mi North 8.1 mph - N/A   Overcast
2:55 AM 35.1 °F 28.6 °F 28.9 °F 78% 30.17 in 10.0 mi North 8.1 mph - N/A   Overcast
3:55 AM 33.1 °F 27.7 °F 30.9 °F 92% 30.18 in 5.0 mi North 5.8 mph - 0.01 in Snow Light Snow
4:24 AM 33.8 °F 28.6 °F 30.2 °F 87% 30.13 in 10.0 mi North 5.8 mph - 0.00 in   Overcast
4:55 AM 35.1 °F - 30.9 °F 85% 30.19 in 10.0 mi Calm Calm - 0.00 in   Overcast
5:55 AM 35.1 °F 29.3 °F 30.9 °F 85% 30.20 in 10.0 mi North 6.9 mph - N/A   Overcast
6:55 AM 34.0 °F 29.8 °F 30.9 °F 89% 30.22 in 4.0 mi NNE 4.6 mph - 0.00 in Snow Light Snow
7:36 AM 33.8 °F 28.6 °F 30.2 °F 87% 30.18 in 9.0 mi NE 5.8 mph - 0.01 in Snow Light Snow
7:55 AM 33.1 °F 28.7 °F 30.9 °F 92% 30.24 in 2.0 mi NNE 4.6 mph - 0.02 in Snow Light Snow
8:03 AM 33.8 °F - 30.2 °F 87% 30.19 in 1.2 mi Calm Calm - 0.00 in Snow Light Snow
8:44 AM 35.6 °F 29.9 °F 30.2 °F 81% 30.19 in 3.0 mi ENE 6.9 mph - 0.01 in   Overcast
8:55 AM 35.1 °F 28.6 °F 30.9 °F 85% 30.24 in 3.0 mi ENE 8.1 mph - 0.01 in   Overcast
9:11 AM 35.6 °F 29.2 °F 30.2 °F 81% 30.19 in 9.0 mi ENE 8.1 mph - N/A   Overcast
9:44 AM 33.8 °F 27.7 °F 30.2 °F 87% 30.20 in 10.0 mi NNE 6.9 mph - N/A   Scattered Clouds
9:55 AM 35.1 °F 30.1 °F 30.9 °F 85% 30.25 in 10.0 mi North 5.8 mph - N/A   Mostly Cloudy
12:55 PM 39.0 °F 32.8 °F 32.0 °F 76% 30.26 in 10.0 mi NNE 9.2 mph - N/A   Overcast
3:55 PM 42.1 °F 38.4 °F 33.1 °F 70% 30.23 in 10.0 mi North 5.8 mph - N/A   Overcast
4:55 PM 42.1 °F 38.4 °F 32.0 °F 67% 30.22 in 10.0 mi NNE 5.8 mph - N/A   Overcast
5:55 PM 42.1 °F 38.4 °F 32.0 °F 67% 30.22 in 10.0 mi ENE 5.8 mph - N/A   Overcast
6:55 PM 41.0 °F - 32.0 °F 70% 30.22 in 10.0 mi Calm Calm - N/A   Overcast
7:55 PM 42.1 °F 39.2 °F 32.0 °F 67% 30.21 in 10.0 mi ENE 4.6 mph - N/A   Overcast
8:29 PM 41.0 °F 38.0 °F 30.2 °F 65% 30.16 in 10.0 mi ENE 4.6 mph - N/A   Mostly Cloudy
8:55 PM 39.9 °F 36.7 °F 32.0 °F 73% 30.20 in 10.0 mi NE 4.6 mph - N/A   Mostly Cloudy
9:21 PM 39.2 °F 35.9 °F 32.0 °F 75% 30.16 in 10.0 mi ENE 4.6 mph - N/A   Mostly Cloudy
9:55 PM 39.0 °F 34.8 °F 34.0 °F 82% 30.20 in 10.0 mi NNE 5.8 mph - N/A   Mostly Cloudy
10:55 PM 37.4 °F 33.8 °F 33.8 °F 87% 30.14 in 10.0 mi NE 4.6 mph - N/A   Partly Cloudy
11:55 PM 37.0 °F 33.3 °F 32.0 °F 82% 30.17 in 10.0 mi NE 4.6 mph - N/A   Clear